This demonstration page uses our WeatherBlox Daily Observations layout. Learn more.

Left ArrowRight Arrow

39.01783, -85.05884

Hourly Observations for April 12, 2020

Temp ( °F °C ) Dew Point ( °F °C ) Humidity (%) Winds ( mph kmh ) Pressure ( in mb ) Visibility ( mi km ) Precip ( " mm )
12:52 am 00:52 Cloudy 48 8.9 42 5.6 80 80 S 6 9 29.90 1013 10 16 0.02 0.51
1:52 am 01:52 Cloudy 51 10.6 36 2.2 56 56 SSE 3 6 29.89 1012 10 16 0.00 0.00
2:52 am 02:52 Cloudy 51 10.6 38 3.3 61 61 SSE 3 6 29.87 1012 10 16 0.00 0.00
3:52 am 03:52 Cloudy 53 11.7 36 2.2 52 52 SSE 9 15 29.83 1010 10 16 0.00 0.00
4:52 am 04:52 Cloudy 50 10 35 1.7 57 57 SSE 7 11 29.83 1010 10 16 N/A
5:52 am 05:52 Cloudy 50 10 34 1.1 54 54 SSE 8 13 29.83 1010 10 16 N/A
6:52 am 06:52 Mostly Cloudy 49 9.4 34 1.1 56 56 S 10 17 29.81 1010 10 16 N/A
7:52 am 07:52 Cloudy 51 10.6 37 2.8 59 59 S 8 13 29.83 1010 10 16 N/A
8:52 am 08:52 Cloudy 54 12.2 37 2.8 53 53 S 8 13 29.86 1011 10 16 N/A
9:52 am 09:52 Cloudy 57 13.9 38 3.3 49 49 S 10 17 29.86 1011 10 16 N/A
10:52 am 10:52 Partly Cloudy 61 16.1 43 6.1 52 52 S 16 26 29.83 1010 10 16 N/A
11:52 am 11:52 Cloudy 62 16.7 44 6.7 52 52 S 16 26 29.85 1011 10 16 N/A
12:52 pm 12:52 Mostly Cloudy 63 17.2 46 7.8 54 54 S 18 30 29.83 1010 10 16 N/A
1:52 pm 13:52 Cloudy 62 16.7 46 7.8 56 56 S 22 35 29.80 1009 10 16 N/A
2:52 pm 14:52 Cloudy 61 16.1 47 8.3 60 60 S 16 26 29.77 1008 10 16 N/A
3:52 pm 15:52 Cloudy 60 15.6 48 8.9 65 65 S 15 24 29.71 1006 10 16 N/A
4:52 pm 16:52 Cloudy 61 16.1 47 8.3 60 60 SSE 13 20 29.69 1005 10 16 N/A
5:52 pm 17:52 Cloudy with Rain 56 13.3 51 10.6 84 84 SSE 15 24 29.67 1005 3 5 0.02 0.51
6:05 pm 18:05 Cloudy with Rain 56 13.3 51 10.6 84 84 S 9 15 29.68 1005 3 4 0.03 0.76
6:26 pm 18:26 Cloudy with Light Rain 55 12.8 51 10.6 87 87 SSE 8 13 29.67 1005 3 5 0.08 2.03
6:52 pm 18:52 Cloudy with Rain 55 12.8 51 10.6 87 87 SE 10 17 29.65 1004 3 5 0.11 2.79
7:30 pm 19:30 Cloudy with Heavy Rain 55 12.8 52 11.1 90 90 SSE 9 15 29.64 1004 2 3 0.10 2.54
7:44 pm 19:44 Cloudy with Rain 55 12.8 52 11.1 90 90 SSE 9 15 29.63 1003 3 4 0.15 3.81
7:52 pm 19:52 Cloudy with Rain 55 12.8 52 11.1 90 90 SSE 8 13 29.61 1003 3 5 0.17 4.32
8:52 pm 20:52 Cloudy 55 12.8 53 11.7 93 93 SE 15 24 29.52 1000 10 16 0.06 1.52
9:46 pm 21:46 Cloudy with Rain 55 13 54 12 94 94 SE 20 31 29.52 1000 3 4 0.01 0.25
9:50 pm 21:50 Cloudy with Light Rain 55 13 54 12 94 94 SE 20 31 29.51 999 3 5 0.02 0.51
9:52 pm 21:52 Cloudy with Light Rain 56 13.3 53 11.7 90 90 SE 17 28 29.49 999 3 5 0.02 0.51
10:33 pm 22:33 Cloudy 56 13.3 54 12.2 93 93 SE 9 15 29.50 999 7 11 0.01 0.25
10:52 pm 22:52 Cloudy with Light Rain 56 13.3 54 12.2 93 93 SE 8 13 29.46 998 6 10 0.02 0.51
11:52 pm 23:52 Cloudy 57 13.9 54 12.2 90 90 SE 8 13 29.41 996 9 14 0.01 0.25

Powered by AerisWeather